RH
56 62 64 64 65 63 60 54 52 49 49 49 50 46 40 39 41 43 42 40 39 32 24 19 18 21 22 22 22 21 20 21
50 55 61 65 64 61 60 56 53 51 50 47 42 39 37 39 42 43 40 40 35 26 21 18 22 24 24 24 23 21 21 24
49 52 59 62 61 60 59 55 53 49 44 40 36 36 39 46 45 41 41 38 29 23 19 21 25 27 26 25 23 22 25 25
47 50 55 59 58 57 57 55 51 46 44 40 37 38 42 44 39 39 38 31 24 21 21 26 28 29 27 26 24 26 30 31
47 50 51 55 56 59 58 57 51 47 44 41 38 40 43 37 36 36 34 27 22 21 25 28 29 28 28 27 28 33 33 34
47 47 51 55 56 58 59 59 53 49 46 43 41 41 36 36 35 37 30 26 21 24 28 29 29 29 30 31 31 34 34 35
45 48 49 53 55 57 56 53 49 48 46 43 42 37 34 35 37 36 31 25 24 27 29 30 31 34 35 33 31 30 29 32
49 48 48 51 55 55 52 50 47 45 43 42 41 35 34 35 37 35 31 25 26 28 30 31 34 36 34 35 34 32 30 27
48 50 48 49 51 51 49 47 45 43 43 43 38 32 30 33 35 34 29 27 28 30 31 33 36 36 38 37 36 34 31 29
45 52 49 49 49 49 48 47 46 44 43 41 37 34 31 32 33 33 29 28 29 31 33 36 38 42 41 41 38 34 30 25
40 50 49 48 50 48 47 48 47 45 42 39 38 36 32 30 32 33 29 30 31 33 35 39 43 45 42 41 39 35 28 23
38 48 48 50 50 48 47 46 46 45 42 39 38 36 32 31 32 34 32 32 33 35 37 42 45 44 43 42 37 32 27 25
36 43 47 50 50 49 46 45 47 48 47 45 43 40 38 36 37 38 36 36 36 38 40 43 45 41 43 41 36 27 24 25
36 41 46 48 51 53 51 50 49 49 49 49 49 47 45 45 45 44 44 41 40 41 44 45 49 49 49 42 36 30 27 22
37 40 45 47 52 56 56 55 55 53 51 52 54 55 54 52 52 50 50 46 44 46 50 55 53 47 39 38 33 31 26 25
42 44 47 50 52 55 56 56 57 59 57 56 58 59 59 58 59 57 53 51 50 54 60 55 53 46 41 35 29 29 29 26
48 52 55 55 55 55 59 61 64 65 63 62 63 64 65 66 64 60 58 55 55 61 63 63 53 47 44 34 35 29 22 22
53 55 57 59 60 61 60 61 63 64 62 64 63 62 65 70 71 65 62 59 61 67 61 59 52 50 48 45 34 28 23 20
54 56 58 60 62 67 68 68 65 65 65 65 64 67 67 73 73 69 65 71 68 62 66 57 56 57 47 40 32 27 23 23
57 58 60 61 62 66 70 75 72 73 69 67 67 73 77 77 77 80 79 76 68 67 60 60 60 52 45 36 32 26 23 24